User: anonymous   Login
Location: Red Shale Campground
(45.5700°N, 106.1600°W)
Time: 23:24:01
(UTC-06:00)
Language:

FENGYUN 3A - Orbit

View from above orbital plane
View from above orbital plane
View from above satellite
View from above satellite

Ground track
Ground track

The orbit data is extracted from the following two-line orbital elements,

1 32958U 08026A   16208.73697310  .00000010  00000-0  24369-4 0  9995
2 32958  98.4492 246.9945 0010214 138.8250 221.3696 14.19625332423160
Epoch (UTC): 26 July 2016 17:41:14
Eccentricity: 0.0010214
inclination: 98.4492°
perigee height: 819 km
apogee height: 834 km
right ascension of ascending node: 246.9945°
argument of perigee: 138.8250°
revolutions per day: 14.19625332
mean anomaly at epoch: 221.3696°
orbit number at epoch: 42316

The dashed part of the orbit path shows where the satellite is in the earth's shadow,  

DLR